This demonstration page uses our WeatherBlox Daily Observations layout. Learn more.

Left ArrowRight Arrow

39.51506, -84.39828

Hourly Observations for March 21, 2017

Temp ( °F °C ) Dew Point ( °F °C ) Humidity (%) Winds ( mph kmh ) Pressure ( in mb ) Visibility ( mi km ) Precip ( " mm )
12:15 am 00:15 Cloudy with Mist and Fog 49 9.6 45 7 84 84 Calm 30.03 1017 2 3 0.00 0.00
12:35 am 00:35 Cloudy with Mist and Fog 49 9.6 45 7 84 84 Calm 30.03 1017 1 2 0.00 0.00
12:55 am 00:55 Cloudy with Mist and Fog 49 9.6 45 7.2 85 85 Calm 30.00 1016 1 2 0.00 0.00
1:15 am 01:15 Cloudy with Mist and Fog 49 9.6 45 7.2 85 85 Calm 30.00 1016 1 2 0.00 0.00
1:35 am 01:35 Cloudy with Mist and Fog 49 9.6 45 7.2 85 85 Calm 30.00 1016 1 1 0.00 0.00
1:55 am 01:55 Cloudy with Mist and Fog 49 9.6 45 7.2 85 85 Calm 30.00 1016 1 2 0.00 0.00
2:10 am 02:10 Cloudy with Mist and Fog 49 9.6 45 7.2 85 85 Calm 30.00 1016 3 4 0.00 0.00
2:35 am 02:35 Cloudy with Mist and Fog 49 9.6 45 7.2 85 85 Calm 30.03 1017 3 4 0.00 0.00
2:55 am 02:55 Cloudy with Mist and Fog 49 9.6 45 7.2 85 85 Calm 30.03 1017 3 5 0.00 0.00
3:15 am 03:15 Cloudy with Mist and Fog 49 9.6 45 7.2 85 85 Calm 30.03 1017 3 4 0.00 0.00
3:35 am 03:35 Cloudy with Mist and Fog 49 9.6 45 7.2 85 85 Calm 30.03 1017 4 6 0.00 0.00
3:55 am 03:55 Cloudy with Mist and Fog 49 9.6 45 7.2 85 85 Calm 30.03 1017 4 6 0.00 0.00
4:15 am 04:15 Cloudy with Mist and Fog 49 9.6 45 7.2 85 85 Calm 30.03 1017 3 5 0.00 0.00
4:35 am 04:35 Cloudy with Mist and Fog 49 9.6 45 7.2 85 85 NNW 5 7 30.03 1017 3 5 0.00 0.00
4:55 am 04:55 Cloudy with Mist and Fog 49 9.6 45 7 84 84 NW 3 6 30.03 1017 3 5 0.00 0.00
5:15 am 05:15 Cloudy with Mist and Fog 49 9.6 45 7 84 84 Calm 30.03 1017 4 6 0.00 0.00
5:35 am 05:35 Cloudy with Haze 49 9.6 44 6.8 83 83 Calm 30.03 1017 4 6 0.00 0.00
5:55 am 05:55 Cloudy with Haze 49 9.6 44 6.8 83 83 NNW 6 9 30.03 1017 4 6 0.00 0.00
6:15 am 06:15 Cloudy with Haze 49 9.6 44 6.8 83 83 N 6 9 30.03 1017 4 6 0.00 0.00
6:35 am 06:35 Cloudy with Haze 49 9.6 44 6.8 83 83 N 6 9 30.06 1018 4 6 0.00 0.00
6:55 am 06:55 Cloudy with Haze 49 9.6 44 6.5 81 81 N 9 15 30.06 1018 5 8 0.00 0.00
7:15 am 07:15 Cloudy with Haze 49 9.6 44 6.5 81 81 N 8 13 30.06 1018 5 8 0.00 0.00
7:35 am 07:35 Cloudy with Haze 49 9.6 44 6.6 82 82 N 9 15 30.09 1019 4 6 0.00 0.00
7:55 am 07:55 Cloudy with Haze 47 8.2 41 5.2 82 82 N 7 11 30.09 1019 4 6 0.00 0.00
8:15 am 08:15 Cloudy with Haze 47 8.2 41 5.1 81 81 N 8 13 30.09 1019 4 6 0.00 0.00
8:35 am 08:35 Cloudy with Haze 47 8.2 41 5 80 80 N 5 7 30.12 1020 5 8 0.00 0.00
8:55 am 08:55 Cloudy with Haze 49 9.2 43 5.9 80 80 N 6 9 30.12 1020 5 8 0.00 0.00
9:15 am 09:15 Cloudy with Haze 49 9.6 43 6 78 78 N 6 9 30.12 1020 5 8 0.00 0.00
9:35 am 09:35 Cloudy with Haze 49 9.6 43 5.9 78 78 N 5 7 30.12 1020 5 8 0.00 0.00
9:55 am 09:55 Cloudy with Haze 49 9.6 42 5.5 76 76 N 6 9 30.15 1021 5 8 0.00 0.00
10:15 am 10:15 Cloudy with Haze 49 9.6 42 5.4 75 75 N 8 13 30.15 1021 5 8 0.00 0.00
10:35 am 10:35 Mostly Cloudy with Haze 49 9.6 41 5 73 73 N 6 9 30.15 1021 5 8 0.00 0.00
10:55 am 10:55 Hazy 49 9.6 41 5 73 73 N 7 11 30.15 1021 5 8 0.00 0.00
11:15 am 11:15 Hazy 49 9.6 40 4.5 71 71 N 5 7 30.15 1021 5 8 0.00 0.00
11:35 am 11:35 Partly Cloudy 52 10.9 41 5.2 68 68 NE 6 9 30.15 1021 7 11 0.00 0.00
11:55 am 11:55 Partly Cloudy 55 12.5 43 6.1 65 65 NE 5 7 30.15 1021 7 11 0.00 0.00
12:15 pm 12:15 Partly Cloudy 55 12.5 42 5.8 64 64 NNE 5 7 30.15 1021 7 11 0.00 0.00
12:35 pm 12:35 Partly Cloudy 55 12.5 40 4.7 59 59 Calm 30.15 1021 10 16 0.00 0.00
12:55 pm 12:55 Partly Cloudy 55 12.5 40 4.7 59 59 N 7 11 30.15 1021 10 16 0.00 0.00
1:15 pm 13:15 Partly Cloudy 57 13.7 42 5.5 58 58 Calm 30.12 1020 10 16 0.00 0.00
1:35 pm 13:35 Partly Cloudy 57 13.8 41 4.8 55 55 Calm 30.12 1020 10 16 0.00 0.00
1:55 pm 13:55 Partly Cloudy 57 13.8 41 4.9 55 55 N 3 6 30.12 1020 10 16 0.00 0.00
2:15 pm 14:15 Mostly Cloudy 57 13.8 41 5.2 56 56 NW 6 9 30.12 1020 10 16 0.00 0.00
2:35 pm 14:35 Partly Cloudy 57 13.8 41 5.1 56 56 NNW 6 9 30.12 1020 10 16 0.00 0.00
2:55 pm 14:55 Partly Cloudy 57 13.8 41 5 56 56 NNW 6 9 30.12 1020 10 16 0.00 0.00
3:15 pm 15:15 Partly Cloudy 59 14.9 40 4.2 49 49 Calm 30.09 1019 10 16 0.00 0.00
3:35 pm 15:35 Sunny 57 14.1 37 2.7 46 46 NW 6 9 30.09 1019 10 16 0.00 0.00
3:55 pm 15:55 Partly Cloudy 60 15.3 36 2.1 41 41 N 7 11 30.09 1019 10 16 0.00 0.00
4:15 pm 16:15 Cloudy 60 15.3 36 2.3 42 42 NNE 7 11 30.09 1019 10 16 0.00 0.00
4:35 pm 16:35 Mostly Cloudy 58 14.6 35 1.9 42 42 NW 3 6 30.12 1020 10 16 0.00 0.00
4:55 pm 16:55 Mostly Cloudy 60 15.3 37 2.9 44 44 NNW 9 15 30.12 1020 10 16 0.00 0.00
5:15 pm 17:15 Cloudy 60 15.3 35 1.4 39 39 NW 3 6 30.12 1020 10 16 0.00 0.00
5:35 pm 17:35 Mostly Cloudy 60 15.3 32 0.2 36 36 NNW 9 15 30.12 1020 10 16 0.00 0.00
5:55 pm 17:55 Cloudy 60 15.3 32 -0.1 35 35 NNW 9 15 30.12 1020 10 16 0.00 0.00
6:15 pm 18:15 Cloudy 57 13.9 28 -2.1 33 33 NW 12 19 30.15 1021 10 16 0.00 0.00
6:35 pm 18:35 Cloudy 57 13.8 29 -1.4 35 35 NW 13 20 30.15 1021 10 16 0.00 0.00
6:55 pm 18:55 Cloudy with Light Rain 55 12.5 33 0.6 44 44 NNW 13 20 30.15 1021 10 16 0.00 0.00
7:15 pm 19:15 Cloudy with Drizzle 55 12.5 36 2 49 49 NNW 9 15 30.15 1021 10 16 0.00 0.00
7:35 pm 19:35 Cloudy with Rain 54 12.1 37 2.6 53 53 NNW 8 13 30.15 1021 10 16 0.00 0.00
7:55 pm 19:55 Cloudy with Rain 49 9.6 37 2.7 62 62 NW 8 13 30.15 1021 10 16 0.00 0.00
8:15 pm 20:15 Cloudy 49 9.6 39 3.8 67 67 WNW 6 9 30.15 1021 10 16 0.00 0.00
8:35 pm 20:35 Cloudy 49 9.6 38 3.4 66 66 W 5 7 30.15 1021 10 16 0.00 0.00
8:55 pm 20:55 Cloudy 49 9.6 38 3.4 66 66 W 3 6 30.15 1021 10 16 0.00 0.00
9:15 pm 21:15 Cloudy 49 9.6 38 3.4 66 66 W 3 6 30.18 1022 10 16 0.00 0.00
9:35 pm 21:35 Cloudy 49 9.6 33 0.5 53 53 NNW 12 19 30.18 1022 10 16 0.00 0.00
9:55 pm 21:55 Cloudy 49 9.6 19 -7.4 30 30 NNW 9 15 30.18 1022 10 16 0.00 0.00
10:15 pm 22:15 Mostly Cloudy 49 9.6 19 -7.5 29 29 NNW 14 22 30.21 1023 10 16 0.00 0.00
10:35 pm 22:35 Partly Cloudy 48 9 20 -6.7 33 33 NNW 10 17 30.21 1023 10 16 0.00 0.00
10:55 pm 22:55 Clear 47 8.2 20 -6.4 35 35 NNW 8 13 30.21 1023 10 16 0.00 0.00
11:15 pm 23:15 Clear 43 6.3 20 -6.9 39 39 NNW 15 24 30.21 1023 10 16 0.00 0.00
11:35 pm 23:35 Clear 42 5.7 19 -7.1 40 40 NNW 10 17 30.21 1023 10 16 0.00 0.00
11:55 pm 23:55 Clear 42 5.5 20 -6.9 41 41 NNW 12 19 30.27 1025 10 16 0.00 0.00

Powered by AerisWeather